sat.trackr.live / text

‹ back to catalog

FLOCK 4Q-2

NORAD 58320 · 2023-174BS

PAYLOAD ACTIVE UNKNOWN

§ Identity

Operator
Country
US
Launch date
2023-11-11
Launch site
AFWTR
Launch vehicle
Mass (kg)
RCS (m²)

Purposes: earth_obs

External: N2YO · Heavens-Above · Gunter

§ Orbital elements

Epoch: 2026-05-25T04:49:12.075744Z

Period
93.00 min
Inclination
97.3829°
Eccentricity
0.0005924
Mean motion
15.48461831 rev/d
Perigee alt
417.2 km
Apogee alt
425.3 km
Semi-major
6,799.4 km
B*
3.9360e-4
RAAN
233.1146°
Arg perigee
204.2952°
Mean anomaly
155.8020°
Rev number
14,204

§ Raw data

FLOCK 4Q-21 58320U 23174BS  26145.20083421  .00020847  00000+0  39360-3 0  99972 58320  97.3829 233.1146 0005924 204.2952 155.8020 15.48461831142045

JSON: /api/v1/satellites/58320 · /tle

For live sub-satellite position, see the globe view (requires WebGL).

§ Visibility from observer

Set your observer location to see the next 7 days of passes ≥ 10°. The values pass through the URL so the page stays shareable.

No JS? Fill the form by hand. The geolocation button needs JavaScript.